TimeCST,TemperatureF,Dew PointF,Humidity,Sea Level PressureIn,VisibilityMPH,Wind Direction,Wind SpeedMPH,Gust SpeedMPH,PrecipitationIn,Events,Conditions,WindDirDegrees,DateUTC
12:15 AM,42.8,39.2,87,29.77,2.5,South,19.6,-,N/A,,Overcast,170,2012-12-03 06:15:00
12:55 AM,44.6,41.0,87,29.75,3.0,South,21.9,27.6,N/A,,Overcast,170,2012-12-03 06:55:00
1:15 AM,44.6,41.0,87,29.74,4.0,South,17.3,-,N/A,,Overcast,170,2012-12-03 07:15:00
1:35 AM,44.6,41.0,87,29.73,4.0,South,19.6,24.2,N/A,,Overcast,170,2012-12-03 07:35:00
1:55 AM,44.6,41.0,87,29.73,4.0,SSE,16.1,-,N/A,,Overcast,160,2012-12-03 07:55:00
2:15 AM,44.6,42.8,93,29.71,4.0,SSE,13.8,-,N/A,,Overcast,160,2012-12-03 08:15:00
2:35 AM,44.6,42.8,93,29.71,3.0,SSE,16.1,-,N/A,,Overcast,150,2012-12-03 08:35:00
2:55 AM,46.4,42.8,87,29.71,1.2,SSE,13.8,-,N/A,,Overcast,160,2012-12-03 08:55:00
3:15 AM,46.4,44.6,93,29.69,0.8,SSE,15.0,-,N/A,,Overcast,160,2012-12-03 09:15:00
3:35 AM,46.4,44.6,93,29.69,0.8,SSE,15.0,-,N/A,,Overcast,160,2012-12-03 09:35:00
3:55 AM,46.4,44.6,93,29.66,0.8,SSE,16.1,-,N/A,,Overcast,160,2012-12-03 09:55:00
4:15 AM,46.4,44.6,93,29.66,1.0,SSE,19.6,24.2,N/A,,Overcast,160,2012-12-03 10:15:00
4:35 AM,48.2,44.6,87,29.65,1.2,SSE,19.6,24.2,N/A,,Overcast,160,2012-12-03 10:35:00
4:55 AM,48.2,44.6,87,29.65,1.8,South,16.1,23.0,N/A,,Overcast,170,2012-12-03 10:55:00
5:15 AM,48.2,46.4,93,29.63,2.0,South,19.6,26.5,N/A,,Overcast,170,2012-12-03 11:15:00
5:35 AM,48.2,46.4,93,29.62,1.5,South,18.4,23.0,N/A,,Overcast,170,2012-12-03 11:35:00
5:55 AM,48.2,46.4,93,29.61,1.0,South,19.6,-,N/A,,Overcast,170,2012-12-03 11:55:00
6:15 AM,48.2,46.4,93,29.60,0.8,South,16.1,-,N/A,,Overcast,170,2012-12-03 12:15:00
6:35 AM,48.2,46.4,93,29.59,0.8,South,17.3,23.0,N/A,,Overcast,170,2012-12-03 12:35:00
6:55 AM,50.0,48.2,94,29.59,1.0,South,18.4,24.2,N/A,,Overcast,170,2012-12-03 12:55:00
7:15 AM,50.0,48.2,94,29.58,1.5,South,17.3,-,N/A,,Overcast,170,2012-12-03 13:15:00
7:35 AM,51.8,48.2,88,29.57,1.0,South,18.4,-,N/A,,Overcast,170,2012-12-03 13:35:00
7:55 AM,51.8,48.2,88,29.58,0.8,South,18.4,-,N/A,,Overcast,170,2012-12-03 13:55:00
8:15 AM,51.8,50.0,94,29.58,1.5,South,17.3,-,N/A,,Overcast,180,2012-12-03 14:15:00
8:35 AM,53.6,50.0,88,29.58,1.8,South,15.0,-,N/A,,Overcast,180,2012-12-03 14:35:00
8:55 AM,53.6,51.8,94,29.58,3.0,SSW,15.0,-,N/A,,Overcast,200,2012-12-03 14:55:00
9:15 AM,53.6,51.8,94,29.57,3.0,SSW,15.0,-,N/A,,Overcast,200,2012-12-03 15:15:00
9:35 AM,55.4,51.8,88,29.58,4.0,SSW,12.7,19.6,N/A,,Overcast,210,2012-12-03 15:35:00
9:55 AM,55.4,51.8,88,29.59,5.0,SW,17.3,21.9,N/A,,Overcast,220,2012-12-03 15:55:00
10:15 AM,55.4,50.0,82,29.59,7.0,SW,16.1,-,N/A,,Overcast,230,2012-12-03 16:15:00
10:35 AM,55.4,48.2,77,29.59,9.0,SW,16.1,21.9,N/A,,Overcast,230,2012-12-03 16:35:00
10:55 AM,55.4,46.4,72,29.60,10.0,WSW,18.4,24.2,N/A,,Overcast,240,2012-12-03 16:55:00
11:15 AM,55.4,46.4,72,29.60,9.0,WSW,17.3,24.2,N/A,,Overcast,250,2012-12-03 17:15:00
11:35 AM,53.6,44.6,72,29.62,9.0,West,20.7,25.3,N/A,,Overcast,270,2012-12-03 17:35:00
11:55 AM,53.6,42.8,67,29.63,10.0,WNW,16.1,24.2,N/A,,Mostly Cloudy,290,2012-12-03 17:55:00
12:15 PM,55.4,41.0,58,29.63,10.0,WNW,20.7,25.3,N/A,,Scattered Clouds,300,2012-12-03 18:15:00
12:35 PM,53.6,39.2,58,29.64,10.0,NW,20.7,26.5,N/A,,Clear,320,2012-12-03 18:35:00
12:55 PM,53.6,39.2,58,29.66,10.0,NNW,20.7,28.8,N/A,,Clear,330,2012-12-03 18:55:00
1:15 PM,55.4,39.2,54,29.66,10.0,NW,26.5,29.9,N/A,,Clear,320,2012-12-03 19:15:00
1:35 PM,55.4,39.2,54,29.68,10.0,NW,20.7,-,N/A,,Clear,320,2012-12-03 19:35:00
1:55 PM,55.4,39.2,54,29.68,10.0,NW,23.0,26.5,N/A,,Clear,310,2012-12-03 19:55:00
2:15 PM,57.2,39.2,51,29.70,10.0,NNW,20.7,26.5,N/A,,Clear,330,2012-12-03 20:15:00
2:35 PM,55.4,37.4,51,29.71,10.0,NW,20.7,27.6,N/A,,Mostly Cloudy,320,2012-12-03 20:35:00
2:55 PM,55.4,37.4,51,29.73,10.0,NW,21.9,27.6,N/A,,Scattered Clouds,320,2012-12-03 20:55:00
3:15 PM,55.4,37.4,51,29.75,10.0,NW,19.6,25.3,N/A,,Partly Cloudy,320,2012-12-03 21:15:00
3:35 PM,53.6,37.4,54,29.76,10.0,NW,21.9,28.8,N/A,,Clear,320,2012-12-03 21:35:00
3:55 PM,53.6,35.6,51,29.78,10.0,NW,12.7,17.3,N/A,,Clear,310,2012-12-03 21:55:00
4:15 PM,51.8,35.6,54,29.79,10.0,WNW,13.8,-,N/A,,Clear,300,2012-12-03 22:15:00
4:35 PM,51.8,32.0,47,29.81,10.0,NW,17.3,23.0,N/A,,Clear,310,2012-12-03 22:35:00
4:55 PM,48.2,30.2,50,29.82,10.0,NW,12.7,-,N/A,,Clear,310,2012-12-03 22:55:00
5:15 PM,46.4,30.2,53,29.84,10.0,WNW,10.4,-,N/A,,Clear,290,2012-12-03 23:15:00
5:35 PM,46.4,30.2,53,29.85,10.0,West,10.4,-,N/A,,Clear,280,2012-12-03 23:35:00
5:55 PM,44.6,28.4,53,29.86,10.0,West,9.2,-,N/A,,Clear,260,2012-12-03 23:55:00
6:15 PM,44.6,28.4,53,29.87,10.0,West,10.4,-,N/A,,Clear,260,2012-12-04 00:15:00
6:35 PM,42.8,28.4,57,29.89,10.0,West,8.1,-,N/A,,Clear,270,2012-12-04 00:35:00
6:55 PM,42.8,26.6,53,29.89,10.0,West,8.1,-,N/A,,Clear,260,2012-12-04 00:55:00
7:15 PM,42.8,26.6,53,29.90,10.0,WNW,13.8,-,N/A,,Clear,300,2012-12-04 01:15:00
7:35 PM,46.4,26.6,46,29.91,10.0,WNW,13.8,-,N/A,,Clear,290,2012-12-04 01:35:00
7:55 PM,44.6,26.6,49,29.91,10.0,WNW,12.7,-,N/A,,Clear,290,2012-12-04 01:55:00
8:15 PM,44.6,24.8,46,29.92,10.0,West,9.2,-,N/A,,Clear,280,2012-12-04 02:15:00
8:35 PM,42.8,24.8,49,29.92,10.0,West,11.5,-,N/A,,Clear,280,2012-12-04 02:35:00
8:55 PM,42.8,24.8,49,29.94,10.0,West,10.4,-,N/A,,Clear,280,2012-12-04 02:55:00
9:15 PM,42.8,24.8,49,29.94,10.0,WNW,10.4,-,N/A,,Clear,290,2012-12-04 03:15:00
9:35 PM,42.8,23.0,46,29.95,10.0,West,9.2,-,N/A,,Clear,280,2012-12-04 03:35:00
9:55 PM,41.0,23.0,49,29.96,10.0,West,10.4,-,N/A,,Clear,270,2012-12-04 03:55:00
10:15 PM,39.2,23.0,52,29.97,10.0,WSW,6.9,-,N/A,,Clear,250,2012-12-04 04:15:00
10:35 PM,35.6,21.2,56,29.98,10.0,WSW,8.1,-,N/A,,Clear,240,2012-12-04 04:35:00
10:55 PM,35.6,23.0,60,29.98,10.0,WSW,10.4,-,N/A,,Clear,240,2012-12-04 04:55:00
11:15 PM,35.6,23.0,60,29.98,10.0,WSW,10.4,-,N/A,,Clear,240,2012-12-04 05:15:00
11:35 PM,37.4,23.0,56,29.98,10.0,WSW,9.2,-,N/A,,Clear,250,2012-12-04 05:35:00
11:55 PM,35.6,23.0,60,29.99,10.0,WSW,10.4,-,N/A,,Clear,240,2012-12-04 05:55:00